CA3EVY-3 Weather Reports


time (UTC)temp
C
wind
direction
speed
KPH
gust
KPH
rain 1hr
cm
rain 24hr
cm
rain mn
cm
humidity
%
barometer
mb
20260506160003 16 0.0 0.0 0.00 0.00 0.00 57 918.6
20260506154504 16 0.0 0.0 0.00 0.00 0.00 57 918.3
20260506153004 16 0.0 0.0 0.00 0.00 0.00 58 918.4
20260506151506 16 0.0 0.0 0.00 0.00 0.00 58 918.4
20260506150004 15 0.0 0.0 0.00 0.00 0.00 60 918.2
20260506144504 15 0.0 0.0 0.00 0.00 0.00 60 918.1
20260506143004 15 0.0 0.0 0.00 0.00 0.00 61 918.0
20260506141503 15 0.0 0.0 0.00 0.00 0.00 61 917.8
20260506140004 14 0.0 0.0 0.00 0.00 0.00 64 918.1
20260506134504 13 0.0 0.0 0.00 0.00 0.00 64 918.4
20260506133003 13 0.0 0.0 0.00 0.00 0.00 65 918.4
20260506131503 13 0.0 0.0 0.00 0.00 0.00 65 918.6
20260506130004 13 0.0 0.0 0.00 0.00 0.00 65 918.7
20260506124505 13 0.0 0.0 0.00 0.00 0.00 65 918.7
20260506123003 12 0.0 0.0 0.00 0.00 0.00 64 918.6
20260506121503 12 0.0 0.0 0.00 0.00 0.00 64 918.7
20260506120004 12 0.0 0.0 0.00 0.00 0.00 64 918.6
20260506114503 12 0.0 0.0 0.00 0.00 0.00 64 918.5
20260506113004 12 0.0 0.0 0.00 0.00 0.00 64 918.1
20260506111503 12 0.0 0.0 0.00 0.00 0.00 64 918.0
20260506110004 13 0.0 0.0 0.00 0.00 0.00 64 917.9
20260506104504 13 0.0 0.0 0.00 0.00 0.00 64 917.6
20260506103003 13 0.0 0.0 0.00 0.00 0.00 64 917.4
20260506101503 13 0.0 0.0 0.00 0.00 0.00 64 917.4
20260506100004 12 0.0 0.0 0.00 0.00 0.00 63 917.2
20260506094503 12 0.0 0.0 0.00 0.00 0.00 63 917.0
20260506093004 12 0.0 0.0 0.00 0.00 0.00 62 916.6
20260506091503 12 0.0 0.0 0.00 0.00 0.00 62 916.4
20260506090004 13 0.0 0.0 0.00 0.00 0.00 62 916.2
20260506084503 13 0.0 0.0 0.00 0.00 0.00 62 916.4
20260506083004 13 0.0 0.0 0.00 0.00 0.00 62 916.6
20260506081503 13 0.0 0.0 0.00 0.00 0.00 62 916.6
20260506073003 13 0.0 0.0 0.00 0.00 0.00 61 916.0
20260506071504 13 0.0 0.0 0.00 0.00 0.00 61 916.0
20260506061503 14 0.0 0.0 0.00 0.00 0.00 61 916.5
20260506044504 14 0.0 0.0 0.00 0.00 0.00 60 916.9
20260506043004 14 0.0 0.0 0.00 0.00 0.00 60 916.9
20260506041504 14 0.0 0.0 0.00 0.00 0.00 60 917.1
20260506040004 15 0.0 0.0 0.00 0.00 0.00 59 917.2
20260506034504 15 0.0 0.0 0.00 0.00 0.00 59 917.3
20260506033004 15 0.0 0.0 0.00 0.00 0.00 59 917.4
20260506031504 15 0.0 0.0 0.00 0.00 0.00 59 917.3
20260506030004 15 0.0 0.0 0.00 0.00 0.00 59 917.2
20260506024503 15 0.0 0.0 0.00 0.00 0.00 59 917.2
20260506023004 15 0.0 0.0 0.00 0.00 0.00 58 917.3
20260506021503 15 0.0 0.0 0.00 0.00 0.00 58 917.3
20260506020003 15 0.0 0.0 0.00 0.00 0.00 58 917.0
20260506014504 15 0.0 0.0 0.00 0.00 0.00 58 917.1
20260506013003 15 0.0 0.0 0.00 0.00 0.00 57 917.2
20260506011504 15 0.0 0.0 0.00 0.00 0.00 57 917.4
20260506010004 16 0.0 0.0 0.00 0.00 0.00 57 917.4
20260506004504 16 0.0 0.0 0.00 0.00 0.00 57 917.5
20260506003003 16 0.0 0.0 0.00 0.00 0.00 56 917.4
20260506001503 16 0.0 0.0 0.00 0.00 0.00 56 916.8
20260506000004 16 0.0 0.0 0.00 0.00 0.00 56 916.7
20260505234504 16 0.0 0.0 0.00 0.00 0.00 56 916.6
20260505233008 16 0.0 0.0 0.00 0.00 0.00 55 916.6
20260505231504 16 0.0 0.0 0.00 0.00 0.00 55 916.7
20260505230003 16 0.0 0.0 0.00 0.00 0.00 53 916.4
20260505224504 16 0.0 0.0 0.00 0.00 0.00 53 916.2
20260505223004 17 0.0 0.0 0.00 0.00 0.00 51 915.9
20260505221503 17 0.0 0.0 0.00 0.00 0.00 51 916.1
20260505220004 17 0.0 0.0 0.00 0.00 0.00 46 915.9
20260505214503 17 0.0 0.0 0.00 0.00 0.00 46 915.6
20260505213003 18 0.0 0.0 0.00 0.00 0.00 43 915.2
20260505211503 18 0.0 0.0 0.00 0.00 0.00 43 915.2
20260505210005 18 0.0 0.0 0.00 0.00 0.00 41 915.3
20260505204505 18 0.0 0.0 0.00 0.00 0.00 41 915.3
20260505203003 19 0.0 0.0 0.00 0.00 0.00 40 915.3
20260505201504 19 0.0 0.0 0.00 0.00 0.00 40 915.1
20260505200004 19 0.0 0.0 0.00 0.00 0.00 39 915.2
20260505194503 19 0.0 0.0 0.00 0.00 0.00 39 915.2
20260505193003 20 0.0 0.0 0.00 0.00 0.00 36 915.1
20260505191503 20 0.0 0.0 0.00 0.00 0.00 36 915.1
20260505190003 20 0.0 0.0 0.00 0.00 0.00 35 915.1
20260505184503 20 0.0 0.0 0.00 0.00 0.00 35 915.0
20260505183003 20 0.0 0.0 0.00 0.00 0.00 35 914.9
20260505181504 20 0.0 0.0 0.00 0.00 0.00 35 914.8
20260505180004 20 0.0 0.0 0.00 0.00 0.00 36 914.9
20260505174504 20 0.0 0.0 0.00 0.00 0.00 36 914.9
20260505173003 20 0.0 0.0 0.00 0.00 0.00 37 914.6
20260505171504 20 0.0 0.0 0.00 0.00 0.00 37 914.8
20260505170003 19 0.0 0.0 0.00 0.00 0.00 39 914.8
20260505164504 19 0.0 0.0 0.00 0.00 0.00 39 914.9
20260505163008 19 0.0 0.0 0.00 0.00 0.00 39 915.0
20260505161503 18 0.0 0.0 0.00 0.00 0.00 39 914.9